Location: Newark
(50.0306°N, 2.3272°E)
Time: 07:20:11
(UTC+00:00)

deb Explorer IX - All Passes

Search period start: 14 December 2019 00:00
Search period end: 24 December 2019 00:00
Orbit: 546 x 1104 km, 38.8° (Epoch: 14 December)

Date Brightness Start Highest point End Pass type
(mag) Time Alt. Az. Time Alt. Az. Time Alt. Az.
14 Dec - 14:53:41 10° SSW 14:57:25 19° SSE 15:01:31 10° ESE daylight
14 Dec - 16:38:36 10° SW 16:43:29 29° S 16:48:58 10° ESE visible
14 Dec - 18:24:54 10° WSW 18:29:48 25° SSW 18:35:11 10° SE visible
14 Dec - 20:13:17 10° SW 20:15:55 12° SSW 20:18:39 10° S visible
15 Dec - 14:31:46 10° SSW 14:35:20 18° SSE 14:39:14 10° ESE daylight
15 Dec - 16:16:41 10° SW 16:21:22 28° S 16:26:40 10° ESE visible
15 Dec - 18:02:56 10° WSW 18:07:39 24° SSW 18:12:51 10° SE visible
15 Dec - 19:51:28 10° SW 19:53:44 12° SSW 19:56:06 10° S visible
16 Dec - 14:09:52 10° SSW 14:13:15 18° SSE 14:16:57 10° ESE daylight
16 Dec - 15:54:45 10° SW 15:59:15 27° S 16:04:21 10° ESE daylight
16 Dec - 17:41:00 10° WSW 17:45:31 23° SSW 17:50:31 10° SE visible
16 Dec - 19:29:45 10° SW 19:31:35 11° SSW 19:33:27 10° SSW visible
17 Dec - 13:47:59 10° SSW 13:51:10 17° SSE 13:54:41 10° ESE daylight
17 Dec - 15:32:49 10° SW 15:37:09 26° S 15:42:04 10° ESE daylight
17 Dec - 17:19:04 10° WSW 17:23:23 22° SSW 17:28:09 10° SSE visible
17 Dec - 19:08:15 10° SW 19:09:25 10° SSW 19:10:37 10° SSW visible
18 Dec - 13:26:05 10° SSW 13:29:07 17° SSE 13:32:25 10° ESE daylight
18 Dec - 15:10:55 10° SW 15:15:04 25° S 15:19:46 10° ESE daylight
18 Dec - 16:57:09 10° WSW 17:01:15 21° SSW 17:05:48 10° SSE visible
19 Dec - 13:04:12 10° SSW 13:07:04 16° SSE 13:10:09 10° ESE daylight
19 Dec - 14:49:00 10° SW 14:53:00 24° S 14:57:28 10° SE daylight
19 Dec - 16:35:16 10° WSW 16:39:09 20° SSW 16:43:26 10° SSE visible
20 Dec - 12:42:18 10° SSW 12:45:01 16° SSE 12:47:55 10° ESE daylight
20 Dec - 14:27:07 10° SW 14:30:56 23° S 14:35:12 10° SE daylight
20 Dec - 16:13:23 10° WSW 16:17:03 19° SSW 16:21:04 10° SSE daylight
21 Dec - 12:20:25 10° SSW 12:22:59 15° SSE 12:25:42 10° SE daylight
21 Dec - 14:05:13 10° SW 14:08:52 22° S 14:12:56 10° SE daylight
21 Dec - 15:51:31 10° WSW 15:54:57 18° SSW 15:58:43 10° SSE daylight
22 Dec - 11:58:30 10° SSW 12:00:56 15° SSE 12:03:30 10° SE daylight
22 Dec - 13:43:19 10° SW 13:46:49 22° S 13:50:40 10° SE daylight
22 Dec - 15:29:40 10° SW 15:32:52 17° SSW 15:36:21 10° SSE daylight
23 Dec - 11:36:35 10° SSW 11:38:54 14° SSE 11:41:19 10° SE daylight
23 Dec - 13:21:25 10° SW 13:24:46 21° S 13:28:26 10° SE daylight
23 Dec - 15:07:50 10° SW 15:10:47 16° SSW 15:13:59 10° SSE daylight
